Location: Roland
(31.1349°N, 85.4372°W)
Time: 01:16:14
(UTC+00:00)

S-56A Canister/Altair - Pass Details

Date: 19 April 2021
Orbit: 632 x 2500 km, 38.9° (Epoch: 06 May)

Event Time Altitude Azimuth Distance (km) Brightness Sun altitude
Exits shadow 10:35:55 - 293° (WNW) 2,830 10.0 -7.6°
Reaches altitude 10° 10:37:53 10° 291° (WNW) 2,022 9.2 -7.2°
Maximum altitude 10:42:17 67° 209° (SSW) 690 7.2 -6.3°
Drops below altitude 10° 10:47:01 10° 127° (SE) 2,178 10.4 -5.4°
Sets 10:49:39 0° 124° (SE) 3,254 11.4 -4.8°
